Time,TemperatureF,DewpointF,PressureIn,WindDirection,WindDirectionDegrees,WindSpeedMPH,WindSpeedGustMPH,Humidity,HourlyPrecipIn,Conditions,Clouds,dailyrainin,SoftwareType,DateUTC
2013-06-26 00:02:00,83.0,67.0,29.80,SE,141,0.0,1.0,59,0.00,,,0.00,,2013-06-26 05:02:00,
2013-06-26 00:11:00,82.0,67.0,29.81,SE,146,0.0,2.0,60,0.00,,,0.00,,2013-06-26 05:11:00,
2013-06-26 00:22:00,82.0,67.0,29.81,SE,146,0.0,2.0,60,0.00,,,0.00,,2013-06-26 05:22:00,
2013-06-26 00:34:00,82.0,67.0,29.81,SE,135,0.0,2.0,61,0.00,,,0.00,,2013-06-26 05:34:00,
2013-06-26 00:43:00,81.0,67.0,29.81,South,171,0.0,3.0,62,0.00,,,0.00,,2013-06-26 05:43:00,
2013-06-26 00:52:00,81.0,67.0,29.81,South,171,0.0,3.0,62,0.00,,,0.00,,2013-06-26 05:52:00,
2013-06-26 01:02:00,81.0,67.0,29.81,SSW,211,0.0,2.0,62,0.00,,,0.00,,2013-06-26 06:02:00,
2013-06-26 01:11:00,81.0,68.0,29.81,SSW,204,0.0,3.0,64,0.00,,,0.00,,2013-06-26 06:11:00,
2013-06-26 01:22:00,81.0,68.0,29.81,SSW,204,0.0,3.0,64,0.00,,,0.00,,2013-06-26 06:22:00,
2013-06-26 01:34:00,80.0,69.0,29.80,SE,145,0.0,3.0,70,0.00,,,0.00,,2013-06-26 06:34:00,
2013-06-26 01:43:00,79.0,69.0,29.79,SSE,155,0.0,2.0,72,0.00,,,0.00,,2013-06-26 06:43:00,
2013-06-26 01:53:00,79.0,69.0,29.79,SSE,155,0.0,2.0,72,0.00,,,0.00,,2013-06-26 06:53:00,
2013-06-26 02:01:00,78.0,67.0,29.78,SE,146,0.0,4.0,70,0.00,,,0.00,,2013-06-26 07:01:00,
2013-06-26 02:11:00,78.0,67.0,29.78,SW,215,0.0,1.0,69,0.00,,,0.00,,2013-06-26 07:11:00,
2013-06-26 02:22:00,78.0,67.0,29.78,SW,215,0.0,1.0,69,0.00,,,0.00,,2013-06-26 07:22:00,
2013-06-26 02:33:00,78.0,66.0,29.78,SW,233,0.0,2.0,67,0.00,,,0.00,,2013-06-26 07:33:00,
2013-06-26 02:43:00,79.0,67.0,29.78,SW,229,0.0,2.0,66,0.00,,,0.00,,2013-06-26 07:43:00,
2013-06-26 02:53:00,79.0,67.0,29.78,SW,229,0.0,2.0,66,0.00,,,0.00,,2013-06-26 07:53:00,
2013-06-26 03:01:00,79.0,66.0,29.78,SW,228,0.0,2.0,65,0.00,,,0.00,,2013-06-26 08:01:00,
2013-06-26 03:11:00,79.0,66.0,29.78,WSW,241,0.0,2.0,65,0.00,,,0.00,,2013-06-26 08:11:00,
2013-06-26 03:22:00,79.0,66.0,29.78,WSW,241,0.0,2.0,65,0.00,,,0.00,,2013-06-26 08:22:00,
2013-06-26 03:33:00,80.0,67.0,29.78,WSW,238,0.0,4.0,64,0.00,,,0.00,,2013-06-26 08:33:00,
2013-06-26 03:42:00,80.0,66.0,29.78,SW,224,1.0,2.0,63,0.00,,,0.00,,2013-06-26 08:42:00,
2013-06-26 03:52:00,80.0,66.0,29.78,SW,224,1.0,2.0,63,0.00,,,0.00,,2013-06-26 08:52:00,
2013-06-26 04:01:00,80.0,66.0,29.78,SW,228,1.0,3.0,62,0.00,,,0.00,,2013-06-26 09:01:00,
2013-06-26 04:11:00,80.0,66.0,29.78,WSW,240,0.0,3.0,62,0.00,,,0.00,,2013-06-26 09:11:00,
2013-06-26 04:22:00,80.0,66.0,29.78,WSW,240,0.0,3.0,62,0.00,,,0.00,,2013-06-26 09:22:00,
2013-06-26 04:33:00,80.0,66.0,29.78,SSW,212,1.0,6.0,62,0.00,,,0.00,,2013-06-26 09:33:00,
2013-06-26 04:43:00,80.0,66.0,29.80,SW,221,0.0,4.0,63,0.00,,,0.00,,2013-06-26 09:43:00,
2013-06-26 04:53:00,80.0,66.0,29.80,SW,221,0.0,4.0,63,0.00,,,0.00,,2013-06-26 09:53:00,
2013-06-26 05:01:00,80.0,67.0,29.80,West,259,1.0,3.0,64,0.00,,,0.00,,2013-06-26 10:01:00,
2013-06-26 05:12:00,79.0,66.0,29.80,SW,221,2.0,6.0,65,0.00,,,0.00,,2013-06-26 10:12:00,
2013-06-26 05:22:00,79.0,66.0,29.80,SW,221,2.0,6.0,65,0.00,,,0.00,,2013-06-26 10:22:00,
2013-06-26 05:34:00,79.0,67.0,29.81,SW,222,1.0,5.0,66,0.00,,,0.00,,2013-06-26 10:34:00,
2013-06-26 05:43:00,79.0,67.0,29.82,SW,215,1.0,5.0,67,0.00,,,0.00,,2013-06-26 10:43:00,
2013-06-26 05:53:00,79.0,67.0,29.82,SW,215,1.0,5.0,67,0.00,,,0.00,,2013-06-26 10:53:00,
2013-06-26 06:02:00,78.0,67.0,29.82,SW,219,0.0,3.0,69,0.00,,,0.00,,2013-06-26 11:02:00,
2013-06-26 06:11:00,78.0,67.0,29.83,West,262,0.0,2.0,70,0.00,,,0.00,,2013-06-26 11:11:00,
2013-06-26 06:22:00,78.0,67.0,29.83,West,262,0.0,2.0,70,0.00,,,0.00,,2013-06-26 11:22:00,
2013-06-26 06:33:00,77.0,67.0,29.83,ESE,114,0.0,3.0,71,0.00,,,0.00,,2013-06-26 11:33:00,
2013-06-26 06:44:00,77.0,67.0,29.84,SW,228,0.0,2.0,72,0.00,,,0.00,,2013-06-26 11:44:00,
2013-06-26 06:52:00,77.0,67.0,29.84,SW,228,0.0,2.0,72,0.00,,,0.00,,2013-06-26 11:52:00,
2013-06-26 07:02:00,77.0,68.0,29.85,SE,133,0.0,1.0,73,0.00,,,0.00,,2013-06-26 12:02:00,
2013-06-26 07:12:00,77.0,68.0,29.85,South,187,0.0,3.0,73,0.00,,,0.00,,2013-06-26 12:12:00,
2013-06-26 07:22:00,77.0,68.0,29.85,South,187,0.0,3.0,73,0.00,,,0.00,,2013-06-26 12:22:00,
2013-06-26 07:33:00,77.0,68.0,29.86,SW,231,0.0,4.0,74,0.00,,,0.00,,2013-06-26 12:33:00,
2013-06-26 07:42:00,78.0,69.0,29.86,WSW,243,1.0,5.0,73,0.00,,,0.00,,2013-06-26 12:42:00,
2013-06-26 07:52:00,78.0,69.0,29.86,WSW,243,1.0,5.0,73,0.00,,,0.00,,2013-06-26 12:52:00,
2013-06-26 08:02:00,79.0,70.0,29.87,SSW,198,0.0,4.0,73,0.00,,,0.00,,2013-06-26 13:02:00,
2013-06-26 08:11:00,80.0,70.0,29.88,SW,225,1.0,5.0,72,0.00,,,0.00,,2013-06-26 13:11:00,
2013-06-26 08:22:00,80.0,70.0,29.88,SW,225,1.0,5.0,72,0.00,,,0.00,,2013-06-26 13:22:00,
2013-06-26 08:34:00,80.0,70.0,29.88,SSW,200,1.0,6.0,72,0.00,,,0.00,,2013-06-26 13:34:00,
2013-06-26 08:42:00,81.0,71.0,29.88,SW,228,2.0,9.0,71,0.00,,,0.00,,2013-06-26 13:42:00,
2013-06-26 08:53:00,81.0,71.0,29.88,SW,228,2.0,9.0,71,0.00,,,0.00,,2013-06-26 13:53:00,
2013-06-26 09:02:00,81.0,71.0,29.89,SSW,201,2.0,8.0,71,0.00,,,0.00,,2013-06-26 14:02:00,
2013-06-26 09:34:00,83.0,72.0,29.89,WSW,248,1.0,5.0,70,0.00,,,0.00,,2013-06-26 14:34:00,
2013-06-26 09:42:00,83.0,72.0,29.89,SSW,193,2.0,12.0,69,0.00,,,0.00,,2013-06-26 14:42:00,
2013-06-26 09:52:00,83.0,72.0,29.89,SSW,193,2.0,12.0,69,0.00,,,0.00,,2013-06-26 14:52:00,
2013-06-26 10:02:00,84.0,73.0,29.90,WSW,245,3.0,7.0,69,0.00,,,0.00,,2013-06-26 15:02:00,
2013-06-26 10:11:00,84.0,72.0,29.90,SW,222,2.0,7.0,68,0.00,,,0.00,,2013-06-26 15:11:00,
2013-06-26 10:22:00,84.0,72.0,29.90,SW,222,2.0,7.0,68,0.00,,,0.00,,2013-06-26 15:22:00,
2013-06-26 10:34:00,85.0,73.0,29.90,WSW,248,3.0,6.0,67,0.00,,,0.00,,2013-06-26 15:34:00,
2013-06-26 10:44:00,85.0,72.0,29.89,SSW,210,3.0,7.0,65,0.00,,,0.00,,2013-06-26 15:44:00,
2013-06-26 10:53:00,85.0,72.0,29.89,SSW,210,3.0,7.0,65,0.00,,,0.00,,2013-06-26 15:53:00,
2013-06-26 11:01:00,86.0,73.0,29.90,WSW,256,3.0,7.0,65,0.00,,,0.00,,2013-06-26 16:01:00,
2013-06-26 11:11:00,87.0,74.0,29.90,WSW,246,2.0,7.0,65,0.00,,,0.00,,2013-06-26 16:11:00,
2013-06-26 11:22:00,87.0,74.0,29.90,WSW,246,2.0,7.0,65,0.00,,,0.00,,2013-06-26 16:22:00,
2013-06-26 11:34:00,87.0,73.0,29.89,South,191,3.0,9.0,63,0.00,,,0.00,,2013-06-26 16:34:00,
2013-06-26 11:43:00,87.0,73.0,29.90,SW,222,1.0,5.0,64,0.00,,,0.00,,2013-06-26 16:43:00,
2013-06-26 11:52:00,87.0,73.0,29.90,SW,222,1.0,5.0,64,0.00,,,0.00,,2013-06-26 16:52:00,
2013-06-26 12:01:00,88.0,74.0,29.90,SW,219,1.0,5.0,63,0.00,,,0.00,,2013-06-26 17:01:00,
2013-06-26 12:11:00,89.0,74.0,29.90,SW,229,1.0,7.0,62,0.00,,,0.00,,2013-06-26 17:11:00,
2013-06-26 12:23:00,89.0,74.0,29.90,SW,229,1.0,7.0,62,0.00,,,0.00,,2013-06-26 17:23:00,
2013-06-26 12:33:00,89.0,75.0,29.89,SW,226,1.0,8.0,63,0.00,,,0.00,,2013-06-26 17:33:00,
2013-06-26 12:43:00,89.0,74.0,29.89,SW,222,2.0,8.0,62,0.00,,,0.00,,2013-06-26 17:43:00,
2013-06-26 12:52:00,89.0,74.0,29.89,SW,222,2.0,8.0,62,0.00,,,0.00,,2013-06-26 17:52:00,
2013-06-26 13:01:00,90.0,75.0,29.89,ESE,103,2.0,5.0,62,0.00,,,0.00,,2013-06-26 18:01:00,
2013-06-26 13:11:00,90.0,74.0,29.89,SE,138,2.0,7.0,60,0.00,,,0.00,,2013-06-26 18:11:00,
2013-06-26 13:22:00,90.0,74.0,29.89,SE,138,2.0,7.0,60,0.00,,,0.00,,2013-06-26 18:22:00,
2013-06-26 13:34:00,91.0,75.0,29.88,SSE,163,2.0,10.0,59,0.00,,,0.00,,2013-06-26 18:34:00,
2013-06-26 13:43:00,91.0,75.0,29.88,ESE,110,3.0,6.0,60,0.00,,,0.00,,2013-06-26 18:43:00,
2013-06-26 13:52:00,91.0,75.0,29.88,ESE,110,3.0,6.0,60,0.00,,,0.00,,2013-06-26 18:52:00,
2013-06-26 14:01:00,92.0,76.0,29.88,SSW,208,1.0,8.0,59,0.00,,,0.00,,2013-06-26 19:01:00,
2013-06-26 14:11:00,92.0,76.0,29.88,SSW,208,1.0,8.0,59,0.00,,,0.00,,2013-06-26 19:11:00,
2013-06-26 14:22:00,92.0,76.0,29.88,East,98,2.0,8.0,59,0.00,,,0.00,,2013-06-26 19:22:00,
2013-06-26 14:33:00,92.0,75.0,29.87,SSW,209,1.0,7.0,57,0.00,,,0.00,,2013-06-26 19:33:00,
2013-06-26 14:42:00,93.0,75.0,29.87,SSW,210,2.0,5.0,57,0.00,,,0.00,,2013-06-26 19:42:00,
2013-06-26 14:52:00,93.0,75.0,29.87,SSW,210,2.0,5.0,57,0.00,,,0.00,,2013-06-26 19:52:00,
2013-06-26 15:01:00,93.0,75.0,29.87,WSW,242,2.0,5.0,56,0.00,,,0.00,,2013-06-26 20:01:00,
2013-06-26 15:12:00,93.0,75.0,29.86,SW,222,2.0,5.0,56,0.00,,,0.00,,2013-06-26 20:12:00,
2013-06-26 15:22:00,93.0,75.0,29.86,SW,222,2.0,5.0,56,0.00,,,0.00,,2013-06-26 20:22:00,
2013-06-26 15:33:00,93.0,75.0,29.86,SW,228,2.0,8.0,56,0.00,,,0.00,,2013-06-26 20:33:00,
2013-06-26 15:43:00,94.0,76.0,29.85,WSW,250,1.0,7.0,56,0.00,,,0.00,,2013-06-26 20:43:00,
2013-06-26 15:52:00,94.0,76.0,29.85,WSW,250,1.0,7.0,56,0.00,,,0.00,,2013-06-26 20:52:00,
2013-06-26 16:02:00,94.0,75.0,29.85,SW,218,2.0,7.0,55,0.00,,,0.00,,2013-06-26 21:02:00,
2013-06-26 16:11:00,94.0,75.0,29.85,SW,218,2.0,5.0,55,0.00,,,0.00,,2013-06-26 21:11:00,
2013-06-26 16:23:00,94.0,75.0,29.85,SW,218,2.0,5.0,55,0.00,,,0.00,,2013-06-26 21:23:00,
2013-06-26 16:33:00,94.0,76.0,29.85,East,86,2.0,15.0,56,0.00,,,0.00,,2013-06-26 21:33:00,
2013-06-26 16:43:00,94.0,76.0,29.85,East,86,2.0,15.0,56,0.00,,,0.00,,2013-06-26 21:43:00,
2013-06-26 16:52:00,94.0,75.0,29.84,West,260,2.0,8.0,55,0.00,,,0.00,,2013-06-26 21:52:00,
2013-06-26 17:01:00,94.0,76.0,29.83,SW,224,1.0,6.0,56,0.00,,,0.00,,2013-06-26 22:01:00,
2013-06-26 17:11:00,95.0,77.0,29.83,East,90,1.0,6.0,56,0.00,,,0.00,,2013-06-26 22:11:00,
2013-06-26 17:22:00,95.0,77.0,29.83,East,90,1.0,6.0,56,0.00,,,0.00,,2013-06-26 22:22:00,
2013-06-26 17:33:00,95.0,76.0,29.83,SW,226,3.0,7.0,55,0.00,,,0.00,,2013-06-26 22:33:00,
2013-06-26 17:43:00,94.0,75.0,29.82,West,262,3.0,7.0,55,0.00,,,0.00,,2013-06-26 22:43:00,
2013-06-26 17:52:00,94.0,75.0,29.82,West,262,3.0,7.0,55,0.00,,,0.00,,2013-06-26 22:52:00,
2013-06-26 18:01:00,94.0,76.0,29.82,SW,226,1.0,5.0,56,0.00,,,0.00,,2013-06-26 23:01:00,
2013-06-26 18:11:00,94.0,76.0,29.81,SW,218,2.0,5.0,56,0.00,,,0.00,,2013-06-26 23:11:00,
2013-06-26 18:22:00,94.0,76.0,29.81,SW,218,2.0,5.0,56,0.00,,,0.00,,2013-06-26 23:22:00,
2013-06-26 18:34:00,93.0,76.0,29.81,SW,232,2.0,5.0,58,0.00,,,0.00,,2013-06-26 23:34:00,
2013-06-26 18:43:00,93.0,76.0,29.81,SE,138,1.0,3.0,58,0.00,,,0.00,,2013-06-26 23:43:00,
2013-06-26 18:52:00,93.0,76.0,29.81,SE,138,1.0,3.0,58,0.00,,,0.00,,2013-06-26 23:52:00,
2013-06-26 19:01:00,92.0,75.0,29.81,WSW,248,2.0,5.0,58,0.00,,,0.00,,2013-06-27 00:01:00,
2013-06-26 19:11:00,92.0,75.0,29.81,WSW,248,2.0,5.0,58,0.00,,,0.00,,2013-06-27 00:11:00,
2013-06-26 19:22:00,92.0,75.0,29.81,ESE,121,1.0,5.0,57,0.00,,,0.00,,2013-06-27 00:22:00,
2013-06-26 19:33:00,91.0,74.0,29.81,South,191,1.0,5.0,58,0.00,,,0.00,,2013-06-27 00:33:00,
2013-06-26 19:42:00,91.0,74.0,29.81,South,191,1.0,5.0,58,0.00,,,0.00,,2013-06-27 00:42:00,
2013-06-26 19:53:00,91.0,75.0,29.81,SW,228,0.0,5.0,59,0.00,,,0.00,,2013-06-27 00:53:00,
2013-06-26 20:01:00,91.0,75.0,29.81,SW,228,0.0,5.0,59,0.00,,,0.00,,2013-06-27 01:01:00,
2013-06-26 20:11:00,91.0,75.0,29.81,SW,228,0.0,5.0,59,0.00,,,0.00,,2013-06-27 01:11:00,
2013-06-26 20:21:00,90.0,74.0,29.82,WSW,240,0.0,5.0,60,0.00,,,0.00,,2013-06-27 01:21:00,
2013-06-26 20:32:00,90.0,74.0,29.82,WSW,240,0.0,5.0,60,0.00,,,0.00,,2013-06-27 01:32:00,
2013-06-26 20:43:00,90.0,74.0,29.82,WSW,240,0.0,5.0,60,0.00,,,0.00,,2013-06-27 01:43:00,
2013-06-26 20:53:00,88.0,74.0,29.82,SSE,155,0.0,2.0,63,0.00,,,0.00,,2013-06-27 01:53:00,
2013-06-26 21:01:00,88.0,74.0,29.82,SSE,155,0.0,2.0,63,0.00,,,0.00,,2013-06-27 02:01:00,
2013-06-26 21:11:00,88.0,74.0,29.82,SSE,155,0.0,2.0,63,0.00,,,0.00,,2013-06-27 02:11:00,
2013-06-26 21:22:00,87.0,74.0,29.82,East,86,0.0,1.0,65,0.00,,,0.00,,2013-06-27 02:22:00,
2013-06-26 21:32:00,87.0,74.0,29.82,East,86,0.0,1.0,65,0.00,,,0.00,,2013-06-27 02:32:00,
2013-06-26 21:42:00,87.0,74.0,29.82,East,86,0.0,1.0,65,0.00,,,0.00,,2013-06-27 02:42:00,
2013-06-26 21:52:00,87.0,74.0,29.82,East,86,0.0,1.0,65,0.00,,,0.00,,2013-06-27 02:52:00,
2013-06-26 22:02:00,87.0,74.0,29.82,East,86,0.0,1.0,65,0.00,,,0.00,,2013-06-27 03:02:00,
2013-06-26 22:11:00,84.0,74.0,29.83,SSE,160,0.0,0.0,73,0.00,,,0.00,,2013-06-27 03:11:00,
2013-06-26 22:21:00,84.0,74.0,29.83,SSE,160,0.0,0.0,73,0.00,,,0.00,,2013-06-27 03:21:00,
2013-06-26 22:32:00,84.0,74.0,29.83,SSE,160,0.0,0.0,73,0.00,,,0.00,,2013-06-27 03:32:00,
2013-06-26 22:42:00,84.0,74.0,29.83,SSE,160,0.0,0.0,73,0.00,,,0.00,,2013-06-27 03:42:00,
2013-06-26 22:52:00,84.0,74.0,29.83,SSE,160,0.0,0.0,73,0.00,,,0.00,,2013-06-27 03:52:00,
2013-06-26 23:01:00,83.0,75.0,29.86,SE,129,0.0,1.0,76,0.00,,,0.00,,2013-06-27 04:01:00,
2013-06-26 23:11:00,83.0,75.0,29.86,SE,129,0.0,1.0,76,0.00,,,0.00,,2013-06-27 04:11:00,
2013-06-26 23:32:00,83.0,75.0,29.86,SE,129,0.0,1.0,76,0.00,,,0.00,,2013-06-27 04:32:00,
2013-06-26 23:42:00,82.0,74.0,29.88,SSW,203,0.0,2.0,78,0.00,,,0.00,,2013-06-27 04:42:00,
2013-06-26 23:53:00,82.0,74.0,29.88,SSW,203,0.0,2.0,78,0.00,,,0.00,,2013-06-27 04:53:00,